This is the latest recevied weather packets stored in our database for station/object IN3MWE-10. If no packets are shown the sender has not sent any weather packets the latest 10 day(s).
| Time | Temp. | Humidity | Pressure | Rain* | Wind** | Luminosity | Snow |
|---|---|---|---|---|---|---|---|
| 1788645025 | 21.67° C | 61% | 984.9 hPa | - | - | - | - |
| 1788644125 | 22.22° C | 54% | 984.8 hPa | - | - | - | - |
| 1788643225 | 22.22° C | 53% | 984.6 hPa | - | - | - | - |
| 1788642325 | 23.33° C | 49% | 984.3 hPa | - | - | - | - |
| 1788641425 | 23.33° C | 50% | 984.2 hPa | - | - | - | - |
| 1788640524 | 23.33° C | 49% | 984.1 hPa | - | - | - | - |
| 1788639624 | 23.89° C | 47% | 984.1 hPa | - | - | - | - |
| 1788638724 | 24.44° C | 44% | 983.9 hPa | - | - | - | - |
| 1788637824 | 25° C | 40% | 983.7 hPa | - | - | - | - |
| 1788636924 | 25.56° C | 36% | 983.4 hPa | - | - | - | - |
| 1788636024 | 26.11° C | 36% | 983.1 hPa | - | - | - | - |
| 1788635141 | 26.11° C | 35% | 982.7 hPa | - | - | - | - |
| 1788634223 | 26.67° C | 34% | 982.5 hPa | - | - | - | - |
| 1788633323 | 26.67° C | 35% | 982.1 hPa | - | - | - | - |
| 1788632423 | 26.67° C | 34% | 981.8 hPa | - | - | - | - |
| 1788631523 | 26.67° C | 37% | 981.6 hPa | - | - | - | - |
| 1788630623 | 26.67° C | 37% | 981.4 hPa | - | - | - | - |
| 1788629723 | 27.22° C | 36% | 981.1 hPa | - | - | - | - |
| 1788628823 | 27.22° C | 39% | 980.8 hPa | - | - | - | - |
| 1788627923 | 27.78° C | 38% | 980.5 hPa | - | - | - | - |
| 1788627022 | 28.33° C | 37% | 980.5 hPa | - | - | - | - |
| 1788626122 | 28.33° C | 42% | 980.4 hPa | - | - | - | - |
| 1788625222 | 28.89° C | 39% | 980.2 hPa | - | - | - | - |
| 1788624322 | 31.11° C | 40% | 980 hPa | - | - | - | - |
| 1788623422 | 36.67° C | 30% | 979.8 hPa | - | - | - | - |
* Rain since midnight (hover to see other rain measurements)
** Current wind speed in m/s (hover to see current wind gust speed)